RH
31 32 32 31 30 30 28 28 30 30 32 27 30 29 30 32 33 33 31 30 28 28 30 30 30 31 33 39 40 42 44 45 43 42 39 35 36 40 51 57 64 70 74 83
29 18 17 17 17 17 17 18 18 19 19 22 22 22 22 23 23 22 23 23 26 30 37 44 47 49 50 50 50 51 49 44 37 40 47 54 65 76 90 100 100 100 100 96
33 27 32 32 28 28 32 32 24 22 26 24 23 22 23 24 25 27 30 30 29 30 32 34 35 33 31 30 31 34 39 44 52 61 70 81 93 100 100 100 99 92 91 99
55 55 54 55 55 54 51 50 43 46 48 45 39 36 35 35 38 44 48 50 51 51 50 48 49 52 54 54 58 69 85 99 100 95 90 96 100 99 100 98 97 100 99 94
72 77 80 63 63 71 87 77 78 84 91 92 92 87 77 71 72 68 66 65 70 76 80 80 81 87 96 99 100 100 100 98 97 100 95 96 100 100 95 80 81 75 75 79
60 71 84 45 50 50 84 93 90 100 100 100 98 90 74 78 82 92 98 99 100 99 99 99 99 99 99 99 93 87 93 89 90 100 100 99 96 92 69 66 74 88 100 100
70 68 80 59 64 67 56 55 53 52 49 48 49 54 58 60 61 64 63 59 58 55 56 65 69 72 77 84 89 90 100 100 100 100 100 89 75 73 94 95 98 99 99 99
88 81 79 80 76 74 73 73 72 68 70 74 78 75 77 78 76 77 79 78 77 77 75 75 76 73 69 66 74 91 100 100 100 97 93 99 100 100 99 96 86 82 79 77
100 100 100 99 100 87 84 84 76 85 99 100 100 95 91 94 98 99 100 100 95 89 88 85 86 89 94 88 88 92 96 100 100 100 100 100 98 83 75 82 76 69 56 34
100 100 95 88 81 81 69 68 80 83 89 96 97 99 99 95 91 94 96 98 95 87 83 95 92 100 100 100 100 100 100 100 100 89 82 81 74 74 65 59 43 31 29 21
100 100 97 99 85 85 77 78 80 78 79 75 74 80 92 100 100 100 99 93 84 79 75 96 98 100 100 98 100 100 100 98 86 56 50 52 53 55 40 29 24 20 16 14
74 86 70 76 69 55 58 64 62 58 59 62 73 77 71 64 58 59 63 63 63 60 63 76 92 100 100 100 100 96 68 36 29 27 29 36 30 25 26 20 17 16 14 12
56 56 64 68 72 68 72 74 73 75 72 68 62 55 54 54 57 64 64 64 56 48 61 66 78 86 93 88 74 40 28 26 26 29 27 23 20 16 14 16 15 15 14 13
37 41 44 46 57 68 76 74 69 67 62 57 54 51 48 51 53 51 46 38 32 39 74 84 82 80 67 44 28 26 26 26 24 20 18 14 14 14 13 12 12 14 14 12
34 36 38 44 47 49 47 48 51 51 50 50 48 41 33 33 32 30 30 30 31 41 47 40 32 30 26 25 25 25 24 20 17 15 14 13 12 12 12 11 11 11 12 11
29 29 33 36 39 41 38 36 43 43 37 32 32 30 28 28 28 28 29 29 30 32 31 28 28 27 26 24 22 19 16 16 13 12 12 12 11 10 10 10 10 10 10 8
27 28 28 31 32 37 46 46 33 28 29 29 28 28 28 29 29 28 28 28 28 27 26 24 22 19 16 15 15 14 14 12 11 11 11 10 9 9 9 9 9 8 7 6
27 28 28 29 30 30 31 30 28 29 29 29 29 29 28 28 28 28 28 28 26 21 16 16 15 15 15 14 13 12 11 10 10 10 9 9 9 8 8 7 6 5 4 4
31 32 29 29 30 30 30 29 29 30 29 28 28 29 28 26 26 24 21 18 16 15 16 16 15 14 13 12 10 10 9 8 8 9 8 8 7 6 5 5 4 4 4 4
32 32 32 31 30 29 29 29 30 30 29 28 26 22 20 19 17 17 17 17 15 13 14 14 13 12 10 10 10 9 8 8 9 8 7 6 5 4 4 4 4 4 4 5
34 33 33 32 31 31 30 30 28 26 24 21 19 18 18 17 16 15 14 14 14 13 13 12 11 10 9 9 9 8 8 7 6 6 6 5 4 4 4 4 4 4 5 5
34 32 31 31 31 30 27 25 23 21 19 18 18 17 15 14 13 13 13 13 14 13 11 10 9 8 8 9 8 7 6 6 6 5 4 4 4 3 3 4 4 5 6 6
34 32 30 29 26 23 21 20 19 18 18 17 16 15 13 11 12 14 15 14 11 10 9 9 8 9 8 7 7 6 5 5 4 3 3 3 3 3 4 5 5 6 7 7
29 27 25 23 22 21 20 19 18 18 16 15 15 14 13 14 14 12 10 9 8 8 8 9 8 7 6 6 5 5 4 3 2 2 2 3 3 4 5 6 6 7 7 7
27 25 24 22 21 20 19 19 19 20 18 16 17 16 14 11 9 9 8 8 8 8 8 6 6 5 5 4 4 3 2 2 2 2 3 3 4 5 6 6 7 7 8 8
24 23 21 21 22 22 21 21 20 19 16 15 14 12 10 9 7 7 7 7 6 6 6 6 5 4 4 3 2 2 2 2 3 3 4 4 5 6 6 7 7 8 8 9
24 23 23 24 22 20 18 16 14 13 12 9 10 10 8 8 8 6 5 5 5 4 4 4 4 3 2 3 2 2 2 3 3 4 4 5 6 6 7 7 7 8 9 9
Wind_Speed
5 7 11 15 18 20 23 24 24 30 24 29 25 27 25 25 23 23 23 22 23 26 29 32 34 37 38 40 43 46 49 53 56 59 61 65 68 70 74 78 80 83 86 90
20 13 10 9 7 7 6 6 7 9 11 14 15 15 17 19 21 25 27 29 31 33 35 38 41 43 46 49 52 55 58 60 62 65 69 72 75 79 83 87 91 94 96 97
12 9 9 11 12 11 14 13 13 14 17 18 20 21 23 25 28 30 32 34 37 39 42 45 48 50 52 56 59 61 65 68 72 76 80 84 88 91 93 95 96 100 101 103
10 12 13 16 16 17 21 20 22 24 26 29 30 31 34 37 38 40 42 44 47 49 50 54 57 59 62 65 67 71 74 78 81 84 87 91 95 97 100 100 101 103 105 107
16 16 23 22 22 23 27 30 30 32 33 37 39 41 43 46 48 50 53 55 57 59 61 64 67 70 73 75 78 81 85 87 89 91 94 96 99 101 102 104 105 108 110 112
24 24 26 32 29 28 30 34 34 37 41 44 45 47 49 52 54 57 60 62 65 68 70 72 75 79 82 84 86 88 89 92 95 98 100 102 102 105 108 110 111 113 117 120
37 36 36 39 39 39 40 41 43 45 48 51 55 56 57 59 61 63 65 68 71 74 75 77 80 83 85 85 87 90 93 98 101 104 106 107 108 112 115 117 118 120 123 125
47 46 45 46 47 48 49 51 53 56 60 63 64 65 68 69 71 72 74 75 77 79 83 85 87 89 91 91 93 97 101 105 108 110 112 112 114 118 121 123 123 126 124 124
54 56 55 55 56 58 61 62 64 66 67 68 71 74 76 78 80 82 84 85 87 91 94 95 94 95 96 96 97 99 103 107 110 113 116 118 120 122 122 124 124 123 123 117
61 67 66 67 68 69 69 71 73 75 77 79 82 84 85 86 88 90 91 93 96 99 100 101 100 100 101 102 103 105 108 112 114 116 118 118 116 116 117 119 120 118 115 111
69 73 74 77 79 80 80 81 81 83 84 86 88 91 93 95 97 99 101 103 104 105 104 104 104 105 106 106 107 108 109 110 111 110 110 109 110 113 114 115 115 113 113 110
80 85 83 84 88 89 89 90 91 92 92 94 96 97 100 102 103 104 105 105 104 102 100 102 102 104 106 106 107 107 106 107 108 107 106 107 107 106 111 112 112 115 114 108
91 92 94 95 95 97 98 99 98 99 100 102 102 103 103 103 102 101 101 100 99 99 100 100 99 100 104 104 107 106 106 106 106 107 107 107 106 107 103 102 109 109 108 103
93 95 97 101 102 104 103 104 105 106 106 106 105 103 100 98 97 97 97 96 96 96 98 98 99 102 104 105 104 105 106 108 108 107 108 106 105 104 102 97 92 94 105 102
93 90 89 92 96 100 101 101 101 100 99 97 96 94 93 93 93 94 94 94 94 96 98 99 100 102 103 104 104 105 107 108 108 108 106 103 100 99 97 95 93 90 89 91
87 86 86 88 89 90 92 91 89 91 93 91 91 90 91 91 92 92 92 92 94 97 99 99 100 101 102 102 103 104 107 109 106 101 100 100 98 95 94 92 88 86 85 81
83 84 84 83 83 83 84 86 86 86 86 87 89 89 88 89 90 91 93 94 95 96 98 96 97 98 100 102 103 105 104 101 99 99 99 96 93 90 88 86 83 81 78 73
81 82 83 81 81 83 83 84 84 85 86 86 86 86 87 89 89 90 91 93 96 96 98 98 99 99 101 103 103 102 100 97 95 94 93 92 89 86 84 80 77 73 69 65
81 82 81 80 80 81 82 83 83 84 84 83 83 84 86 87 87 87 89 92 96 95 97 100 101 101 101 101 98 98 93 91 90 90 89 86 83 81 77 73 67 63 59 53
79 79 78 79 80 80 81 80 81 81 81 80 82 84 86 88 89 90 92 93 99 97 97 98 100 100 98 95 94 94 90 87 87 84 82 80 78 73 68 62 57 52 48 43
77 78 79 79 79 78 79 80 81 81 81 83 85 86 87 89 90 92 93 94 96 99 99 99 99 96 93 92 92 89 84 83 78 77 75 72 67 62 58 54 49 43 39 36
78 78 78 78 77 78 80 81 82 81 82 85 87 88 88 89 90 91 93 96 95 98 97 97 95 92 90 89 86 82 79 74 72 68 64 60 57 54 50 45 41 36 33 29
79 79 79 79 79 80 82 84 84 83 85 87 88 89 90 90 92 95 93 98 99 96 93 92 91 88 85 83 79 74 69 65 61 58 56 53 49 45 41 36 33 29 27 25
79 81 81 82 82 84 85 86 86 88 89 89 90 91 92 92 91 98 94 89 88 87 87 87 83 80 76 72 69 63 59 55 53 51 48 45 41 36 32 29 26 23 21 20
83 83 83 84 84 86 87 87 88 91 91 91 93 95 95 95 91 89 88 86 83 82 80 79 75 71 68 62 57 54 50 47 46 43 39 36 31 28 25 24 21 18 17 17
86 86 85 86 88 88 89 90 90 92 92 92 94 96 95 91 86 82 81 80 77 76 72 69 68 63 57 54 49 46 43 41 38 36 31 27 25 23 21 19 16 15 16 16
88 86 86 88 91 91 91 91 91 90 90 88 87 88 84 83 81 77 72 70 68 66 63 60 55 51 50 46 44 41 38 34 31 27 25 23 21 20 17 14 14 15 15 14
Wind_Direction
134 212 235 246 254 257 260 264 259 263 267 276 277 277 281 283 284 283 287 284 281 282 282 285 287 287 285 284 283 283 282 282 283 285 286 288 289 290 292 292 294 295 296 296
54 69 79 56 33 20 353 342 329 312 312 302 304 301 294 291 295 299 298 294 292 290 289 289 288 286 284 283 282 281 280 281 284 287 287 287 289 288 290 291 291 293 294 295
25 23 13 351 347 343 343 342 321 309 320 310 308 305 303 300 299 293 290 288 287 285 283 282 281 281 281 282 283 283 285 286 287 287 288 289 289 290 291 292 292 294 297 297
327 321 317 315 316 315 312 313 307 305 308 305 302 298 294 295 293 291 291 290 290 288 287 286 285 284 284 284 285 287 287 287 287 288 289 289 288 288 292 294 296 296 296 297
300 296 296 297 299 296 293 298 294 294 294 291 291 289 287 285 284 283 283 283 284 284 285 284 284 284 284 285 285 285 285 286 287 287 288 289 289 291 293 295 295 297 298 298
289 288 288 293 295 290 289 287 288 287 287 287 286 287 288 287 287 287 288 288 288 287 286 286 286 286 286 285 285 286 286 286 287 287 288 290 291 292 294 296 296 297 297 296
295 284 279 291 289 289 288 287 286 288 287 286 287 287 287 288 288 289 289 288 287 287 287 287 287 286 286 287 287 287 287 287 289 291 291 291 292 293 294 295 294 294 295 295
291 286 282 284 284 283 285 288 287 288 289 291 290 290 290 291 291 291 291 292 292 290 290 289 288 287 287 288 288 287 287 287 287 288 289 290 291 292 293 293 294 294 294 294
282 282 283 281 281 283 285 286 287 286 285 285 286 287 288 289 290 292 292 291 291 291 291 289 288 287 287 287 287 287 287 287 287 288 288 289 290 291 293 293 293 293 293 295
283 281 282 282 281 282 283 284 284 284 284 285 287 287 288 289 289 289 289 290 290 291 290 288 288 287 286 285 286 286 286 287 288 289 289 290 291 293 293 293 294 295 297 298
279 279 279 280 281 282 283 282 282 282 282 284 286 287 288 289 289 289 289 289 290 290 290 286 285 285 285 287 289 290 290 290 291 291 292 292 293 294 294 295 297 298 298 298
274 276 276 277 279 281 282 282 283 284 285 286 287 288 289 289 290 290 289 290 291 291 291 288 288 288 288 289 290 290 291 291 292 294 294 294 294 294 297 299 300 300 300 299
277 280 280 279 279 281 282 283 284 285 287 288 289 291 291 291 291 291 291 291 291 290 289 289 289 289 289 291 292 293 293 294 295 295 295 295 297 300 299 299 301 299 298 299
283 280 280 280 280 280 281 283 285 286 288 288 289 290 291 290 289 289 289 289 290 292 292 291 291 291 291 291 292 293 294 295 296 297 298 301 301 301 300 299 297 295 297 298
286 284 282 280 280 279 282 284 286 287 288 288 289 289 289 289 290 290 290 290 290 291 290 291 292 292 293 293 294 296 296 297 298 300 301 302 302 301 299 298 297 297 296 296
284 285 285 283 283 284 285 286 287 288 288 288 288 288 289 289 289 290 290 291 290 290 291 292 293 293 294 295 296 297 298 299 301 302 303 302 300 298 297 298 299 299 298 299
287 286 285 284 284 286 286 286 287 287 287 288 289 290 290 289 289 290 291 291 291 290 291 293 294 295 296 297 297 298 299 301 302 303 301 300 299 299 300 301 300 300 300 300
286 284 284 284 285 285 285 287 288 288 289 289 289 289 289 289 290 290 290 290 291 293 295 296 296 296 297 298 299 300 301 304 303 301 300 300 300 302 300 301 301 301 301 302
287 286 286 286 286 286 287 287 287 288 288 290 290 289 289 289 289 290 291 292 293 295 295 296 297 298 299 299 300 302 303 302 303 301 301 302 302 302 303 303 302 303 303 302
287 286 286 287 287 287 287 288 289 289 290 290 289 289 290 291 293 294 294 294 294 297 296 297 297 297 299 301 302 302 303 304 302 302 302 302 303 303 303 303 304 304 303 303
287 287 286 286 287 289 290 290 289 290 290 290 290 291 292 292 292 293 294 295 296 297 298 299 299 300 302 303 303 303 304 302 303 303 302 303 303 303 302 303 304 304 303 301
286 287 288 289 289 288 287 287 288 289 290 290 290 291 292 292 293 294 296 295 297 298 299 299 300 302 303 303 303 304 302 305 303 303 302 302 303 302 303 303 305 304 303 303
288 289 289 288 288 288 288 289 291 292 290 290 292 292 293 294 296 297 297 299 299 299 300 300 301 302 303 302 303 303 305 302 302 302 302 303 303 304 305 305 304 305 303 297
287 287 287 287 288 288 289 290 291 292 292 293 294 294 295 297 298 298 299 298 298 299 300 301 300 302 301 301 303 303 301 302 301 301 302 302 303 305 306 305 305 301 292 291
285 286 286 286 287 288 289 291 292 293 294 295 296 297 298 299 298 297 299 300 299 299 299 299 300 300 301 303 301 301 301 300 300 300 301 302 305 306 306 304 296 288 292 293
285 286 287 288 289 290 291 292 293 294 296 297 298 298 298 298 300 301 300 300 300 299 299 299 299 303 302 300 303 301 299 298 299 300 301 302 305 305 299 292 289 294 295 291
284 286 288 289 290 291 291 292 293 295 297 297 297 296 297 299 299 299 299 298 297 298 299 299 301 299 300 302 299 297 295 298 300 298 302 304 302 296 291 295 298 296 293 287